NUDTSAT (42787 NORAD) Tracking and Keplerian Element Data

This shows tracking and keplerian element data for the satellite.

Feedback or suggestion? Click here.




ElementValue
Catalog42787
NameNUDTSAT
Epoch Orbit7714
Epoch Day317.88525974
Epoch Year2018
RAAN15.4545
Inclination97.3866
Eccentricity0.0010724
Argument of Perigee278.8196
Mean Anonmoly81.1833
Mean Motion15.22727924
Decay Rate1.508E-05
L11 42787U 17036Y 18317.88525974 .00001508 00000-0 67599-4 0 9997
L22 42787 97.3866 15.4545 0010724 278.8196 81.1833 15.22727924 77142

Live tracking and technical data element details for NUDTSAT (NORAD 42787). NUDTSAT can be tracked NOW for your location showing map with azimuth and elevation plus other details from your city location.

Track the satellite on the map from your city or location and see movement details for azimuth, elevation, latitude, longitude, range, height, and movement on the map or in text.







IsCatalogInMostPopularTable: catalog: 42787, numindb: 144
Update: records affected: 1



GetName: 42787 NUDTSAT

Hit Count: updated at: Thu, 15 Nov 2018 03:41:40 GMT